Theta_e
298 298 298 298 298 299 299 299 299 299 300 300 300 299 300 305 307 305 306 307 307 306 307 307 308 309 309 308 308 309 305 306 308 308 309 310 310 312 314 314 316 322 326 328 334
298 298 298 297 297 298 298 298 298 299 299 299 299 299 299 306 310 306 306 306 305 305 306 308 308 309 308 308 309 306 303 305 305 306 308 308 309 310 311 310 314 323 325 329 332
297 297 297 296 297 297 297 297 297 298 298 299 299 298 299 305 309 304 304 304 302 302 303 304 310 309 309 308 308 306 304 305 307 308 310 309 308 310 310 309 311 314 324 331 334
296 297 296 296 296 297 296 296 296 297 297 298 298 298 300 304 306 302 303 304 303 303 301 302 305 309 307 307 308 306 307 307 308 309 309 307 310 308 309 310 311 310 316 327 332
296 297 297 296 296 295 295 295 295 295 296 297 297 298 299 303 302 301 302 301 303 302 303 302 306 306 307 308 307 305 306 307 308 307 308 309 307 308 308 310 310 310 313 322 328
297 297 297 296 295 294 293 294 295 295 296 296 297 297 300 300 298 299 298 298 297 299 302 303 304 304 305 307 307 307 308 307 307 307 307 306 307 307 310 311 310 310 310 312 320
297 296 297 297 294 293 293 294 295 296 296 297 297 300 301 297 297 295 295 297 298 298 300 303 303 303 303 305 306 305 305 304 305 307 306 308 307 304 310 310 310 311 310 310 309
297 296 295 296 294 292 293 294 295 296 296 299 300 301 301 297 297 296 294 296 294 298 298 299 304 304 304 304 306 306 303 301 303 304 306 306 307 306 310 309 308 310 310 310 310
296 297 295 296 292 293 294 294 296 295 299 300 298 302 298 296 295 294 293 294 294 299 297 302 304 304 305 304 302 303 302 302 302 303 303 304 305 306 309 308 307 309 309 308 309
295 295 295 292 293 296 293 294 296 295 298 300 295 297 296 297 294 294 293 293 294 293 295 296 302 299 293 294 302 300 299 302 304 303 305 305 305 304 306 306 306 308 309 309 310
294 295 294 292 295 296 292 294 294 294 294 293 294 294 295 296 296 294 294 293 293 293 292 294 295 291 291 294 293 293 295 297 298 301 303 305 305 305 306 306 305 306 309 309 309
295 294 293 292 293 295 291 294 294 293 293 294 295 295 295 293 295 294 293 293 293 292 292 290 293 292 292 292 292 291 292 293 296 301 300 302 302 302 304 306 306 306 307 308 310
294 295 294 292 293 293 293 293 294 293 293 294 295 295 293 293 294 293 293 292 293 291 291 291 291 293 292 292 293 293 292 291 292 295 296 300 302 302 304 305 306 307 307 308 309
294 293 293 291 292 294 293 293 292 293 285 294 296 294 292 293 293 293 292 293 292 291 291 291 292 292 292 293 293 294 293 293 293 294 295 299 302 302 304 304 305 306 307 306 308
293 292 291 292 292 293 293 292 293 294 286 291 295 292 292 293 293 293 292 292 292 292 292 291 291 292 293 292 294 295 295 295 295 295 296 296 300 300 303 305 306 305 306 307 308
290 290 291 292 292 291 291 292 295 286 284 292 292 292 292 292 292 292 291 291 292 292 292 291 292 292 292 291 293 294 293 294 294 297 297 296 300 300 301 303 305 305 307 307 308
290 291 292 292 292 290 292 292 286 286 288 292 292 292 292 292 292 292 291 290 289 285 290 291 292 291 292 291 292 292 292 288 288 297 296 297 298 299 301 302 303 305 306 308 308
289 291 292 291 291 292 292 285 284 281 291 292 292 292 292 291 291 291 290 288 290 290 286 290 286 291 291 291 292 292 293 294 294 295 296 297 301 300 301 303 303 305 305 306 308
289 291 291 290 290 290 292 283 282 289 293 292 290 290 288 291 290 289 289 289 291 291 289 290 291 291 292 292 293 293 296 295 296 295 296 296 297 298 300 302 304 305 306 306 306
289 291 292 290 291 291 285 285 285 292 292 292 289 286 290 290 288 287 288 290 290 291 290 287 290 291 292 293 293 294 295 297 299 300 300 300 299 299 301 301 303 304 305 306 306
289 291 291 290 291 291 283 278 290 292 291 287 289 291 288 287 287 288 289 290 290 290 291 290 289 291 292 291 290 293 295 297 299 300 300 301 300 299 299 300 303 302 304 304 305
289 285 290 291 289 284 283 281 292 292 291 291 288 286 291 289 283 283 290 287 291 290 287 291 286 291 290 290 292 294 294 294 296 295 295 297 298 300 301 303 303 304 305 306 307
288 288 290 291 286 282 285 285 290 291 291 291 289 289 284 288 290 284 280 290 290 288 284 288 283 286 286 289 292 289 292 293 293 294 296 298 298 301 301 303 304 305 306 306 307
288 284 289 290 290 287 283 284 285 289 290 291 291 291 285 285 287 288 288 288 291 290 291 290 286 287 289 289 290 291 292 292 293 294 295 296 297 298 300 304 305 305 307 306 308
288 288 289 282 285 288 286 280 285 285 289 290 290 288 289 289 284 287 288 285 289 290 290 286 286 284 289 290 290 290 291 291 292 295 297 297 299 300 300 302 304 303 303 303 307
288 288 288 288 288 286 286 282 287 286 288 287 287 289 289 289 287 288 289 291 289 290 285 282 289 284 288 289 289 290 290 292 297 299 297 296 295 296 297 303 302 301 301 300 301
289 288 288 287 286 281 281 286 288 288 288 289 289 289 289 289 289 290 290 290 290 290 290 287 284 283 287 286 284 284 292 292 295 297 296 295 295 295 300 298 298 298 299 299 299
Wind_Speed
21 21 22 22 22 22 22 22 20 20 20 20 21 19 18 10 12 7 12 16 18 17 16 15 7 6 5 3 5 4 2 4 5 6 7 6 6 9 7 3 3 2 6 4 28
19 20 20 21 22 22 23 22 20 21 20 20 19 17 12 4 5 17 17 17 19 17 16 15 11 5 2 3 4 4 4 9 7 5 3 7 1 10 7 8 1 2 4 12 29
21 21 22 22 22 23 23 23 21 20 19 20 18 15 7 1 3 18 19 19 18 17 13 11 9 6 3 3 4 3 6 5 7 11 9 6 11 4 3 5 4 4 7 21 32
22 22 22 22 22 23 23 22 22 21 19 19 18 14 5 2 1 18 15 15 15 15 12 8 6 1 2 3 5 6 8 10 9 13 14 8 14 6 12 15 13 9 7 18 28
22 23 23 23 23 22 23 21 21 22 18 16 14 12 4 10 10 18 13 14 16 14 15 12 9 8 3 6 12 4 6 14 16 22 15 17 14 15 16 22 17 14 10 20 26
23 23 24 24 24 23 22 21 21 19 14 9 7 6 6 8 13 19 19 17 15 16 15 12 8 7 6 5 4 14 14 17 15 19 18 10 19 8 17 24 20 21 23 22 25
24 24 25 26 25 23 23 21 20 14 6 7 5 14 18 13 13 18 19 22 22 14 13 7 10 6 5 6 13 12 9 8 8 11 8 12 14 7 34 28 32 35 33 29 30
23 24 23 25 25 25 23 20 14 7 6 4 8 9 8 10 9 15 25 15 24 16 13 4 4 3 2 8 10 5 3 5 5 8 6 6 20 11 15 23 33 40 42 36 35
22 24 24 25 25 25 24 15 6 9 6 6 10 8 5 8 20 24 28 24 25 13 19 8 5 4 8 5 4 5 5 4 8 18 8 3 4 5 20 23 27 33 39 35 38
22 24 24 24 22 26 25 8 8 15 5 7 9 8 15 10 24 22 29 16 22 26 6 18 6 5 7 9 5 14 10 10 15 9 25 24 22 18 27 29 28 34 39 37 38
22 24 23 22 19 24 28 3 4 4 25 10 8 6 14 12 8 25 28 11 23 22 7 8 8 8 8 7 9 11 13 17 14 12 11 17 19 18 25 31 25 29 40 35 29
24 25 22 18 16 17 22 17 14 8 5 11 13 16 11 16 8 23 23 13 14 11 11 6 7 6 14 13 13 11 14 12 12 9 19 12 34 22 25 28 30 29 35 40 45
24 25 23 18 8 11 18 19 8 8 2 4 7 14 22 9 6 18 21 14 5 11 7 4 2 15 13 13 17 14 14 13 17 19 16 19 28 18 24 30 35 37 38 41 44
23 23 21 20 5 13 10 16 10 3 4 3 3 9 19 6 8 15 23 15 8 6 4 3 7 12 13 9 11 14 3 17 21 15 5 10 12 19 8 15 22 36 32 36 38
25 22 17 14 12 11 16 13 7 2 4 6 4 6 16 9 7 15 20 15 4 6 3 4 9 15 8 7 10 7 10 13 15 17 16 20 9 16 10 20 27 13 26 31 38
25 20 14 11 10 16 15 12 1 5 2 5 5 7 9 13 10 15 14 17 8 3 2 8 18 3 7 13 10 12 13 18 14 6 10 16 15 12 17 21 17 9 29 32 35
23 17 13 13 18 16 12 7 5 6 5 5 4 5 3 5 6 9 7 8 2 6 10 7 2 5 8 14 8 13 4 4 5 4 7 3 11 25 16 14 12 14 21 30 36
24 15 11 15 16 12 12 5 8 4 2 2 4 5 4 6 6 8 8 5 5 5 4 6 6 9 12 12 8 16 3 4 6 10 12 11 12 10 11 20 35 41 43 42 36
24 9 13 15 17 15 8 6 6 3 4 4 6 5 5 5 2 7 5 3 4 5 2 5 5 23 15 11 3 5 4 8 10 18 10 8 20 23 27 26 18 24 28 29 30
21 6 16 16 21 12 6 4 2 6 5 4 2 3 1 3 4 5 3 3 6 5 3 5 13 9 9 9 3 6 7 7 5 7 6 8 13 12 18 27 18 18 23 42 39
18 5 14 17 12 10 3 4 2 4 8 3 2 1 2 2 1 3 4 7 0 5 6 5 3 15 3 6 17 9 5 5 8 6 6 9 7 13 18 20 14 8 17 16 16
14 4 16 16 7 4 2 3 6 4 5 2 2 3 2 2 2 2 5 5 11 5 4 4 4 4 25 21 7 3 6 11 6 11 16 14 15 17 19 11 9 18 24 19 17
9 6 12 13 3 3 6 5 3 4 4 4 3 3 2 2 3 4 4 8 14 1 2 3 2 6 15 6 2 6 9 13 14 15 20 11 11 3 14 20 24 16 30 21 20
6 4 7 8 7 3 3 4 5 11 6 7 6 4 1 3 5 4 5 6 12 12 18 5 3 6 8 17 16 21 29 24 16 10 16 16 28 30 16 18 14 16 21 26 16
7 4 3 3 4 10 2 1 4 5 3 5 3 2 6 4 3 6 4 4 13 17 4 4 6 4 15 19 21 24 26 25 20 20 13 22 28 25 23 24 1 12 21 22 21
4 3 1 5 7 1 4 3 6 4 2 8 3 15 8 11 10 20 18 12 5 12 5 3 9 3 16 16 12 21 24 16 15 15 9 15 22 28 36 20 10 15 17 24 27
5 5 4 4 2 3 3 4 10 16 9 9 15 14 15 20 28 27 25 27 23 15 18 6 4 1 7 15 8 9 6 19 11 15 13 14 21 24 12 13 14 16 21 24 28
Wind_Direction
10 6 3 1 358 357 355 358 356 353 352 349 350 359 1 44 58 48 28 2 341 341 346 336 298 260 249 246 225 209 84 227 243 181 249 325 10 313 329 325 347 111 158 189 179
358 355 354 353 351 349 349 351 350 346 345 341 345 355 4 79 46 33 10 347 338 331 339 356 357 324 246 241 229 172 162 218 211 206 275 318 316 325 325 331 11 299 176 156 180
358 355 351 349 347 346 344 345 345 340 340 334 340 349 359 60 52 8 357 344 339 335 322 328 326 334 299 285 245 211 210 234 279 265 306 295 307 259 252 287 234 289 194 170 179
357 353 350 346 345 343 342 342 339 337 337 333 335 344 16 94 100 356 351 343 340 348 332 320 315 352 294 285 330 332 266 272 282 291 303 296 296 274 240 249 272 294 244 195 190
358 354 351 350 343 343 340 340 335 334 335 333 331 333 96 76 24 338 338 338 339 356 16 11 38 6 348 324 319 221 316 322 305 306 305 304 270 259 255 267 268 270 236 221 212
359 354 353 348 348 346 343 340 333 337 335 348 348 7 84 81 20 354 341 345 340 339 354 12 15 325 288 291 316 315 301 296 304 297 285 270 272 244 262 268 267 262 255 242 235
353 359 353 351 350 346 349 343 337 339 358 46 47 94 80 74 33 15 14 23 18 344 328 2 348 349 317 307 324 302 303 304 264 255 243 262 273 232 262 265 260 258 257 249 242
355 353 354 351 351 347 354 346 343 360 14 48 86 90 83 47 355 3 15 11 21 15 3 2 358 321 290 305 326 317 288 321 334 11 293 212 260 293 288 269 258 257 257 248 246
353 354 354 354 355 349 359 355 19 18 62 110 71 94 78 20 29 25 11 6 10 58 45 52 52 51 16 346 348 355 300 322 321 329 316 271 314 311 303 271 259 261 261 256 250
354 353 357 358 1 356 5 9 109 54 62 75 67 100 39 20 33 20 11 18 34 31 50 28 38 62 22 22 350 318 310 309 300 317 316 299 290 287 291 291 267 264 261 258 259
355 356 358 1 12 1 8 122 47 23 49 54 45 64 26 13 14 17 12 22 27 34 26 3 65 28 346 4 345 326 311 306 301 290 316 293 298 287 284 273 268 265 263 255 253
356 352 357 8 20 8 22 60 35 11 344 59 62 48 15 4 1 17 19 33 28 29 14 12 67 0 345 344 326 311 308 308 300 320 316 312 293 282 275 272 271 259 257 254 258
354 351 353 5 26 26 26 31 10 348 35 19 55 37 15 5 13 9 18 17 24 17 25 68 276 349 342 336 325 320 310 301 293 315 292 289 284 268 255 252 257 257 253 253 249
352 354 353 356 9 8 16 358 345 345 75 321 19 21 4 51 21 30 17 17 3 10 52 352 335 328 328 344 331 322 330 309 302 315 325 350 287 276 281 259 241 245 246 245 243
354 351 356 0 345 352 337 340 334 165 72 284 48 20 22 51 323 6 356 353 340 320 99 300 323 313 323 328 310 294 328 308 302 286 295 260 247 280 190 243 247 254 251 243 248
359 353 354 4 1 341 322 335 119 47 273 338 44 351 22 25 0 358 353 8 339 19 30 303 291 264 286 307 271 313 324 297 271 240 254 252 223 270 246 251 259 241 249 246 247
3 6 0 8 356 350 328 334 40 89 300 2 354 356 20 357 2 13 351 349 21 14 336 340 194 293 307 335 309 301 331 324 335 222 253 349 210 243 278 285 275 259 253 256 247
4 360 12 13 4 355 345 48 65 257 348 56 348 348 60 22 352 338 345 356 5 52 320 347 337 340 320 300 281 280 221 247 262 272 275 304 253 251 306 259 257 267 265 264 256
4 33 34 28 12 352 352 49 176 238 358 5 6 37 343 22 49 11 325 285 13 51 47 310 277 304 307 296 216 302 226 234 262 266 274 243 258 268 277 270 258 245 256 254 260
3 40 22 17 358 2 61 102 67 39 11 15 97 133 350 324 19 35 315 262 338 44 64 272 298 280 330 309 273 217 282 316 257 278 274 262 254 260 292 285 291 271 258 261 264
9 66 356 352 2 33 91 223 310 4 10 113 222 302 225 219 155 293 253 299 162 322 332 265 238 300 317 324 307 335 336 272 283 261 287 300 303 315 259 264 288 319 332 296 276
14 49 1 7 43 32 34 203 322 317 333 337 115 189 236 220 226 248 247 199 300 333 305 261 230 295 297 290 257 162 294 316 311 312 293 284 276 275 270 330 308 334 333 330 317
7 9 13 30 61 344 342 315 327 337 340 348 316 209 178 234 311 187 237 278 295 219 239 279 273 319 329 357 167 274 304 301 300 282 265 284 277 169 342 298 303 329 320 315 332
14 25 16 39 34 100 14 298 330 309 272 257 258 258 72 289 213 262 247 282 289 267 292 325 244 191 263 270 294 298 300 303 296 286 285 266 273 289 305 308 297 337 319 314 347
21 53 42 309 333 328 352 227 305 324 259 303 325 245 288 274 292 248 247 283 285 289 237 142 248 219 258 268 280 278 284 290 293 276 271 294 297 313 321 298 42 316 345 340 8
3 19 321 275 300 39 316 277 289 295 346 306 251 300 289 287 254 284 285 279 250 286 170 228 272 266 287 278 266 289 287 281 292 317 296 316 329 325 317 285 25 18 356 353 354
318 310 268 253 196 86 236 239 296 308 306 305 303 299 294 279 282 278 274 268 263 266 272 189 227 242 269 296 310 302 224 338 323 318 334 340 333 324 317 43 24 23 14 357 349